User: anonymous   Login
Location: Unspecified
(0.0000°N, 0.0000°E)
Time: 09:16:22
(UTC+00:00)
Language:

APRIZESAT 1 (LATINSAT C) - Orbit

View from above orbital plane
View from above orbital plane
View from above satellite
View from above satellite

Ground track
Ground track

The orbit data is extracted from the following two-line orbital elements,

1 28372U 04025G   17086.76625433 +.00000065 +00000-0 +28369-4 0  9994
2 28372 098.2465 036.4971 0046027 341.1479 018.8009 14.49484781673772
Epoch (UTC): 27 March 2017 18:23:24
Eccentricity: 0.0046027
inclination: 98.2465°
perigee height: 694 km
apogee height: 760 km
right ascension of ascending node: 36.4971°
argument of perigee: 341.1479°
revolutions per day: 14.49484781
mean anomaly at epoch: 18.8009°
orbit number at epoch: 67377

The dashed part of the orbit path shows where the satellite is in the earth's shadow,  

DLR